Weather History for Mankato, MN

Change the Weather History Date:

Tuesday, July 9, 2013

  Actual Average Record
Temperature  
Mean Temperature 76 °F -  
Max Temperature 84 °F 77 °F 91 °F (2001)
Min Temperature 69 °F 60 °F 55 °F (1996)
Cooling Degree Days 12    
Growing Degree Days 26 (Base 50)    
Moisture  
Dew Point 67 °F    
Average Humidity 70    
Maximum Humidity 88    
Minimum Humidity 54    
Precipitation  
Precipitation 0.30 in - - ()
Sea Level Pressure  
Sea Level Pressure 29.90 in    
Wind  
Wind Speed 11 mph (WSW)    
Max Wind Speed 29 mph    
Max Gust Speed 38 mph    
Visibility 10 miles    
Events Thunderstorm    
Averages and records for this station are not official NWS values.
T = Trace of Precipitation, MM = Missing Value Source: NWS Daily Summary

Daily Weather History Graph

Daily Weather History Graph

Search for Another Location

Airport:

Trip Planner

Search our weather history database for the weather conditions in past years. The results will help you decide how hot, cold, wet, or windy it might be!

Date:

Astronomy

Jul. 09, 2013 Rise Set
Actual Time 5:41 AM CDT 9:00 PM CDT
Civil Twilight 5:05 AM CDT 9:35 PM CDT
Nautical Twilight 4:19 AM CDT 10:22 PM CDT
Astronomical Twilight 3:21 AM CDT 11:19 PM CDT
Moon 7:11 AM CDT (7/9) 9:31 PM CDT (7/9)
Length of Visible Light 16h 30m
Length of Day
15h 18m
New Moon, 2% of the Moon is Illuminated
Jul 9
New Moon
Jul 15
First Quarter
Jul 22
Full
Jul 29
Last Quarter
Aug 6
New

Hourly Weather History & Observations

Time (CDT) Temp. Heat Index Dew Point Humidity Pressure Visibility Wind Dir Wind Speed Gust Speed Precip Events Conditions
12:15 AM 77.0 °F - 68.0 °F 74% 29.95 in 10.0 mi ESE 10.4 mph - N/A   Clear
12:35 AM 77.0 °F - 68.0 °F 74% 29.95 in 10.0 mi ESE 9.2 mph - N/A   Clear
12:55 AM 78.8 °F - 68.0 °F 69% 29.96 in 10.0 mi ESE 8.1 mph - N/A   Clear
1:15 AM 77.0 °F - 68.0 °F 74% 29.95 in 10.0 mi ESE 8.1 mph - N/A   Clear
1:35 AM 78.8 °F - 66.2 °F 65% 29.94 in 10.0 mi ESE 9.2 mph - N/A   Clear
1:55 AM 77.0 °F - 68.0 °F 74% 29.94 in 10.0 mi ESE 8.1 mph - N/A   Scattered Clouds
2:15 AM 77.0 °F - 68.0 °F 74% 29.94 in 10.0 mi SE 9.2 mph - N/A   Mostly Cloudy
2:35 AM 77.0 °F - 68.0 °F 74% 29.92 in 10.0 mi SE 11.5 mph - N/A   Partly Cloudy
2:55 AM 77.0 °F - 68.0 °F 74% 29.92 in 10.0 mi SE 9.2 mph - N/A   Partly Cloudy
3:15 AM 77.0 °F - 68.0 °F 74% 29.91 in 10.0 mi SE 11.5 mph - N/A   Clear
3:35 AM 75.2 °F - 68.0 °F 78% 29.89 in 10.0 mi SSE 10.4 mph - N/A   Clear
3:55 AM 75.2 °F - 68.0 °F 78% 29.89 in 10.0 mi SSE 10.4 mph - N/A   Clear
4:15 AM 75.2 °F - 68.0 °F 78% 29.88 in 10.0 mi SE 10.4 mph - N/A   Clear
4:35 AM 75.2 °F - 69.8 °F 83% 29.89 in 10.0 mi SSE 8.1 mph - N/A   Clear
4:55 AM 75.2 °F - 69.8 °F 83% 29.89 in 10.0 mi SE 5.8 mph - N/A   Clear
5:15 AM 75.2 °F - 69.8 °F 83% 29.89 in 10.0 mi SE 6.9 mph - N/A   Scattered Clouds
5:35 AM 75.2 °F - 69.8 °F 83% 29.89 in 8.0 mi South 9.2 mph - N/A Thunderstorm Thunderstorm
5:55 AM 75.2 °F - 69.8 °F 83% 29.87 in 6.0 mi SSE 6.9 mph - N/A   Mostly Cloudy
6:15 AM 73.4 °F - 69.8 °F 88% 29.85 in 6.0 mi SE 4.6 mph - N/A   Partly Cloudy
6:35 AM 73.4 °F - 69.8 °F 88% 29.86 in 7.0 mi South 8.1 mph - N/A   Mostly Cloudy
6:55 AM 75.2 °F - 69.8 °F 83% 29.86 in 7.0 mi South 9.2 mph - N/A Thunderstorm Mostly Cloudy
7:15 AM 73.4 °F - 68.0 °F 83% 29.92 in 2.0 mi West 28.8 mph 38.0 mph 0.14 in Thunderstorm Thunderstorm
7:35 AM 71.6 °F - 64.4 °F 78% 29.90 in 9.0 mi West 19.6 mph 32.2 mph 0.29 in Thunderstorm Thunderstorm
7:55 AM 69.8 °F - 64.4 °F 83% 29.90 in 10.0 mi West 10.4 mph 18.4 mph 0.30 in Thunderstorm Overcast
8:15 AM 69.8 °F - 64.4 °F 83% 29.89 in 10.0 mi South 8.1 mph - N/A   Overcast
8:35 AM 69.8 °F - 64.4 °F 83% 29.82 in 10.0 mi SE 12.7 mph - N/A   Overcast
8:55 AM 69.8 °F - 64.4 °F 83% 29.80 in 10.0 mi SSE 11.5 mph - N/A   Scattered Clouds
9:15 AM 69.8 °F - 64.4 °F 83% 29.84 in 10.0 mi South 4.6 mph - N/A   Clear
9:35 AM 71.6 °F - 64.4 °F 78% 29.85 in 10.0 mi SSW 10.4 mph - N/A   Clear
9:55 AM 73.4 °F - 66.2 °F 78% 29.85 in 10.0 mi South 9.2 mph - N/A   Clear
10:15 AM 73.4 °F - 66.2 °F 78% 29.85 in 10.0 mi South 8.1 mph - N/A   Clear
10:35 AM 75.2 °F - 66.2 °F 73% 29.85 in 10.0 mi SSW 8.1 mph - N/A   Clear
10:55 AM 77.0 °F - 66.2 °F 69% 29.86 in 10.0 mi SW 9.2 mph - N/A   Clear
11:15 AM 78.8 °F - 66.2 °F 65% 29.88 in 10.0 mi SW 10.4 mph - N/A   Clear
11:35 AM 78.8 °F - 68.0 °F 69% 29.88 in 10.0 mi West 11.5 mph - N/A   Clear
11:55 AM 80.6 °F 83.2 °F 68.0 °F 65% 29.88 in 10.0 mi WSW 13.8 mph 18.4 mph N/A   Clear
12:15 PM 80.6 °F 83.9 °F 69.8 °F 70% 29.88 in 10.0 mi West 10.4 mph - N/A   Partly Cloudy
12:35 PM 82.4 °F 86.3 °F 69.8 °F 66% 29.88 in 10.0 mi West 16.1 mph 19.6 mph N/A   Partly Cloudy
12:55 PM 82.4 °F 86.3 °F 69.8 °F 66% 29.88 in 10.0 mi West 17.3 mph 23.0 mph N/A   Scattered Clouds
1:15 PM 82.4 °F 85.4 °F 68.0 °F 62% 29.88 in 10.0 mi West 17.3 mph 23.0 mph N/A   Scattered Clouds
1:35 PM 82.4 °F 83.9 °F 64.4 °F 54% 29.88 in 10.0 mi West 17.3 mph 23.0 mph N/A   Clear
1:55 PM 82.4 °F 84.6 °F 66.2 °F 58% 29.88 in 10.0 mi NW 18.4 mph 24.2 mph N/A   Clear
2:15 PM 82.4 °F 84.6 °F 66.2 °F 58% 29.88 in 10.0 mi NW 18.4 mph 25.3 mph N/A   Partly Cloudy
2:35 PM 82.4 °F 84.6 °F 66.2 °F 58% 29.88 in 10.0 mi WNW 16.1 mph - N/A   Partly Cloudy
2:55 PM 82.4 °F 84.6 °F 66.2 °F 58% 29.88 in 10.0 mi NW 15.0 mph 20.7 mph N/A   Mostly Cloudy
3:15 PM 82.4 °F 84.6 °F 66.2 °F 58% 29.88 in 10.0 mi NW 16.1 mph 20.7 mph N/A   Mostly Cloudy
3:35 PM 82.4 °F 84.6 °F 66.2 °F 58% 29.88 in 10.0 mi WNW 13.8 mph 21.9 mph N/A   Partly Cloudy
3:55 PM 84.2 °F 87.3 °F 68.0 °F 58% 29.88 in 10.0 mi WNW 16.1 mph 23.0 mph N/A   Scattered Clouds
4:15 PM 82.4 °F 84.6 °F 66.2 °F 58% 29.89 in 10.0 mi WNW 15.0 mph - N/A   Mostly Cloudy
4:35 PM 84.2 °F 86.6 °F 66.2 °F 55% 29.89 in 10.0 mi WNW 13.8 mph - N/A   Mostly Cloudy
4:55 PM 82.4 °F 84.6 °F 66.2 °F 58% 29.90 in 10.0 mi WNW 13.8 mph - N/A   Mostly Cloudy
5:15 PM 82.4 °F 84.6 °F 66.2 °F 58% 29.90 in 10.0 mi WNW 15.0 mph - N/A   Mostly Cloudy
5:35 PM 82.4 °F 84.6 °F 66.2 °F 58% 29.90 in 10.0 mi WNW 16.1 mph - N/A   Partly Cloudy
5:55 PM 82.4 °F 84.6 °F 66.2 °F 58% 29.89 in 10.0 mi WNW 15.0 mph 18.4 mph N/A   Partly Cloudy
6:15 PM 82.4 °F 84.6 °F 66.2 °F 58% 29.89 in 10.0 mi NW 13.8 mph 19.6 mph N/A   Clear
6:35 PM 82.4 °F 84.6 °F 66.2 °F 58% 29.90 in 10.0 mi WNW 13.8 mph - N/A   Clear
6:55 PM 82.4 °F 84.6 °F 66.2 °F 58% 29.90 in 10.0 mi WNW 15.0 mph - N/A   Clear
7:15 PM 82.4 °F 84.6 °F 66.2 °F 58% 29.90 in 10.0 mi WNW 11.5 mph - N/A   Clear
7:35 PM 80.6 °F 82.7 °F 66.2 °F 61% 29.90 in 10.0 mi NW 11.5 mph - N/A   Clear
7:55 PM 80.6 °F 82.7 °F 66.2 °F 61% 29.91 in 10.0 mi WNW 12.7 mph 17.3 mph N/A   Clear
8:15 PM 80.6 °F 82.3 °F 64.4 °F 58% 29.91 in 10.0 mi NW 9.2 mph 18.4 mph N/A   Clear
8:35 PM 78.8 °F - 64.4 °F 61% 29.91 in 10.0 mi WNW 10.4 mph - N/A   Partly Cloudy
8:55 PM 78.8 °F - 64.4 °F 61% 29.92 in 10.0 mi WNW 9.2 mph - N/A   Scattered Clouds
9:15 PM 77.0 °F - 64.4 °F 65% 29.92 in 10.0 mi NW 10.4 mph - N/A   Partly Cloudy
9:35 PM 77.0 °F - 64.4 °F 65% 29.93 in 10.0 mi NW 10.4 mph - N/A   Clear
9:55 PM 75.2 °F - 64.4 °F 69% 29.93 in 10.0 mi WNW 8.1 mph - N/A   Clear
10:15 PM 75.2 °F - 64.4 °F 69% 29.93 in 10.0 mi West 9.2 mph - N/A   Partly Cloudy
10:35 PM 75.2 °F - 64.4 °F 69% 29.94 in 10.0 mi NW 9.2 mph - N/A   Partly Cloudy
10:55 PM 75.2 °F - 64.4 °F 69% 29.95 in 10.0 mi NW 12.7 mph - N/A   Clear
11:15 PM 73.4 °F - 64.4 °F 73% 29.95 in 10.0 mi NW 13.8 mph 19.6 mph N/A   Clear
11:35 PM 73.4 °F - 64.4 °F 73% 29.96 in 10.0 mi NW 10.4 mph - N/A   Partly Cloudy
11:55 PM 71.6 °F - 64.4 °F 78% 29.96 in 10.0 mi NW 11.5 mph 16.1 mph N/A   Partly Cloudy